This is the latest recevied weather packets stored in our database for station/object KD0KHX-10. If no packets are shown the sender has not sent any weather packets the latest 10 day(s).
| Time | Temp. | Humidity | Pressure | Rain* | Wind** | Luminosity | Snow |
|---|---|---|---|---|---|---|---|
| 1777877972 | 8.33° C | 59% | 1001.2 hPa | 0 mm | - | - | - |
| 1777877538 | 8.89° C | 60% | 1001.2 hPa | 0 mm | - | - | - |
| 1777877103 | 9.44° C | 55% | 1001.3 hPa | 0 mm | - | - | - |
| 1777876803 | 10.56° C | 55% | 1001.4 hPa | 0 mm | - | - | - |
| 1777876772 | 10.56° C | 55% | 1001.4 hPa | 0 mm | - | - | - |
| 1777876203 | 10.56° C | 55% | 1001.4 hPa | 0 mm | - | - | - |
| 1777876172 | 10.56° C | 54% | 1001.4 hPa | 0 mm | - | - | - |
| 1777875603 | 11.11° C | 54% | 1001.4 hPa | 0 mm | - | - | - |
| 1777875303 | 11.11° C | 54% | 1001.4 hPa | 0 mm | - | - | - |
| 1777875273 | 11.11° C | 54% | 1001.4 hPa | 0 mm | - | - | - |
| 1777874972 | 11.11° C | 54% | 1001.5 hPa | 0 mm | - | - | - |
| 1777874403 | 11.11° C | 54% | 1001.5 hPa | 0 mm | - | - | - |
| 1777874237 | 11.11° C | 53% | 1001.5 hPa | 0 mm | - | - | - |
| 1777874073 | 11.11° C | 53% | 1001.5 hPa | 0 mm | - | - | - |
| 1777873637 | 11.67° C | 51% | 1001.6 hPa | 0 mm | - | - | - |
| 1777873203 | 12.22° C | 51% | 1001.5 hPa | 0 mm | - | - | - |
| 1777872903 | 11.67° C | 53% | 1001.6 hPa | 0 mm | - | - | - |
| 1777872738 | 11.67° C | 53% | 1001.5 hPa | 0 mm | - | - | - |
| 1777872437 | 11.11° C | 52% | 1001.6 hPa | 0 mm | - | - | - |
| 1777872273 | 11.67° C | 51% | 1001.7 hPa | 0 mm | - | - | - |
| 1777871837 | 12.22° C | 51% | 1001.7 hPa | 0 mm | - | - | - |
| 1777871403 | 12.22° C | 51% | 1001.7 hPa | 0 mm | - | - | - |
| 1777871372 | 12.22° C | 51% | 1001.7 hPa | 0 mm | - | - | - |
| 1777870803 | 12.22° C | 52% | 1001.9 hPa | 0 mm | - | - | - |
| 1777870503 | 12.22° C | 52% | 1002 hPa | 0 mm | - | - | - |
* Rain latest hour (hover to see other rain measurements)
** Current wind speed in m/s (hover to see current wind gust speed)